Lapse_Rate
7.2 7.2 7.1 7.0 6.9 6.8 6.7 6.7 6.7 6.6 6.4 6.3 6.3 6.1 6.2 6.1 6.1 6.0 6.1 6.0 6.1 6.3 6.1 6.0 5.9 5.9 5.8 5.8 5.7 5.6 5.5 5.5 5.6
7.0 7.1 7.0 6.8 6.9 6.8 6.7 6.7 6.7 6.6 6.5 6.4 6.3 6.2 6.2 6.1 6.0 5.9 6.1 6.0 5.9 5.8 5.8 5.8 5.8 5.7 5.7 5.7 5.7 5.6 5.5 5.5 5.5
6.8 6.9 6.8 6.7 6.7 6.7 6.7 6.7 6.6 6.4 6.3 6.2 6.1 6.1 6.0 6.0 5.9 5.8 5.8 5.8 5.8 5.7 5.8 5.8 5.6 5.6 5.5 5.5 5.5 5.4 5.4 5.4 5.4
6.5 6.6 6.6 6.6 6.5 6.5 6.4 6.3 6.1 6.1 5.9 5.9 5.7 5.5 5.6 5.6 5.8 5.7 5.7 5.6 5.5 5.4 5.5 5.5 5.5 5.5 5.4 5.4 5.4 5.3 5.3 5.3 5.3
6.3 6.3 6.3 6.2 6.1 6.1 6.0 5.8 5.7 5.6 5.5 5.5 5.4 5.3 5.4 5.4 5.5 5.4 5.3 5.3 5.4 5.4 5.3 5.3 5.3 5.2 5.2 5.3 5.2 5.2 5.2 5.2 5.2
5.9 5.9 5.9 5.8 5.7 5.6 5.5 5.4 5.3 5.4 5.2 5.2 5.1 5.0 5.0 5.3 5.2 5.2 5.3 5.3 5.0 5.1 5.1 5.1 4.9 4.9 5.0 5.0 5.1 5.1 5.1 5.2 5.1
5.9 5.7 5.7 5.6 5.5 5.5 5.3 5.3 5.2 5.2 5.1 4.9 5.1 5.3 5.2 5.3 5.2 5.3 4.9 4.8 4.6 4.5 4.6 4.7 4.6 4.7 4.7 4.8 4.8 4.9 4.9 4.9 5.0
5.6 5.4 5.3 5.2 5.2 5.1 5.0 5.0 5.1 5.1 5.1 5.1 5.0 4.9 5.2 5.1 5.1 5.0 5.0 4.8 4.8 4.7 4.5 4.4 4.5 4.5 4.6 4.6 4.7 4.7 4.8 4.8 4.8
5.6 5.3 5.3 5.2 5.2 5.2 5.1 5.1 5.1 5.1 5.0 5.2 5.2 5.1 5.1 5.2 5.1 5.4 5.2 5.3 5.1 5.1 4.9 4.8 4.8 4.7 4.8 4.7 4.7 4.6 4.6 4.7 4.7
5.6 5.4 5.3 5.2 5.4 5.3 5.1 5.1 4.9 4.9 5.1 5.0 5.0 5.0 5.1 5.1 4.9 5.0 5.1 5.2 5.1 5.1 5.0 4.9 4.8 4.7 4.7 4.7 4.7 4.8 4.7 4.7 4.6
5.6 5.3 5.3 5.2 5.1 5.0 4.9 5.1 5.0 5.1 5.1 5.2 5.5 5.3 5.2 5.2 5.2 4.9 4.9 4.9 4.9 4.9 4.9 5.1 5.0 4.8 4.7 4.7 4.8 4.8 4.9 4.8 4.7
5.7 5.6 5.3 5.3 5.2 5.2 5.2 5.4 5.3 5.4 5.4 5.3 5.2 5.2 5.1 5.1 5.0 4.9 4.9 4.7 4.8 5.0 5.0 5.0 4.9 4.9 4.9 4.7 4.6 4.8 4.8 4.8 5.0
5.9 5.8 5.7 5.6 5.6 5.7 5.6 5.6 5.5 5.4 5.2 5.2 5.1 5.3 5.3 5.3 5.2 5.0 5.2 5.5 5.3 4.9 4.6 4.5 4.8 4.3 4.3 4.4 4.3 4.2 4.4 4.6 4.8
6.0 5.9 5.8 5.9 5.9 5.7 5.5 5.4 5.4 5.3 5.3 5.4 5.5 5.4 5.4 5.4 5.3 5.6 5.3 5.2 5.0 4.7 4.5 4.1 4.1 4.2 4.4 4.2 4.2 4.4 4.5 4.7 4.6
5.9 5.8 5.8 5.8 5.7 5.6 5.4 5.3 5.4 5.4 5.4 5.5 5.7 5.8 5.6 5.3 5.5 5.4 5.3 5.0 4.7 4.6 4.3 3.9 4.3 4.2 3.9 3.9 4.4 4.5 4.5 4.3 4.2
5.8 5.7 5.7 5.5 5.4 5.4 5.5 5.6 5.6 5.6 5.6 5.7 5.8 5.7 5.7 5.4 5.2 4.9 4.4 4.2 4.1 4.0 4.0 4.1 4.0 4.0 4.0 3.9 3.8 3.8 4.1 4.3 4.4
5.5 5.5 5.5 5.4 5.5 5.6 5.8 5.9 6.0 5.8 5.5 5.5 5.5 5.5 5.8 5.4 5.2 5.2 5.1 4.9 4.9 4.8 4.4 4.4 4.4 4.4 4.3 4.2 4.2 4.2 4.2 3.9 4.0
5.5 5.5 5.5 5.7 5.8 5.9 5.9 5.9 5.6 5.5 5.2 4.8 4.4 4.5 4.8 4.8 5.3 5.1 4.9 4.6 4.3 4.3 4.3 4.3 4.3 4.3 4.4 4.5 4.5 4.3 4.1 4.0 3.9
5.6 5.8 5.8 5.8 5.7 5.7 5.5 5.3 5.1 5.0 4.7 4.5 4.3 4.0 3.7 3.6 3.9 4.3 4.1 4.0 4.0 4.1 4.2 4.2 4.3 4.4 4.4 4.5 4.4 4.0 3.8 3.4 3.5
5.6 5.7 5.7 5.7 5.6 5.4 5.3 5.2 4.9 4.6 4.5 4.3 4.3 4.3 4.2 4.1 3.8 3.7 3.7 3.8 4.0 4.0 4.0 4.1 4.2 4.3 4.0 3.7 3.4 3.3 3.3 3.2 2.9
Wind_Speed
3 8 8 6 4 3 2 2 3 4 4 5 6 7 8 8 9 11 13 5 8 11 5 8 9 10 11 12 11 10 11 10 10
6 9 10 8 4 2 2 4 5 7 8 7 8 7 7 9 10 11 13 13 11 13 13 11 12 13 13 13 14 15 14 15 13
6 10 8 4 5 3 4 6 8 8 9 9 10 10 8 9 11 12 13 18 15 14 15 15 15 17 15 17 16 17 17 17 17
7 11 7 5 4 4 6 9 10 11 11 11 11 10 11 11 10 14 13 16 18 17 16 17 18 19 19 20 20 20 19 19 18
7 9 8 6 5 7 9 11 12 12 13 14 15 16 14 12 13 15 15 20 19 18 17 18 20 21 22 22 22 20 22 22 22
14 9 9 5 6 9 11 13 14 15 14 17 23 20 11 13 12 12 17 17 17 18 19 20 22 24 25 25 25 24 24 25 24
5 3 6 7 10 12 14 15 17 15 11 12 16 10 13 12 12 12 15 16 18 19 20 21 24 25 26 27 28 28 27 27 26
6 8 9 9 11 11 12 12 12 10 11 9 8 9 12 11 11 14 18 18 21 22 22 22 25 26 28 29 30 29 28 28 28
3 1 1 4 5 5 6 5 8 8 10 9 6 7 7 8 10 13 21 21 21 24 24 24 25 27 29 30 30 29 29 30 30
3 3 4 4 6 4 3 4 4 6 7 7 5 8 8 10 9 10 15 17 17 19 23 25 26 27 28 29 33 30 30 31 32
2 3 3 5 7 7 5 4 4 4 4 6 7 7 6 9 11 12 13 21 20 18 20 22 24 25 27 27 29 30 31 32 33
3 4 4 4 9 9 8 5 5 5 6 7 6 6 6 5 7 10 11 14 20 19 17 20 20 21 25 26 27 28 28 29 32
7 5 5 8 9 6 5 5 5 5 5 4 5 5 9 10 6 11 12 12 14 15 19 21 22 27 26 27 30 28 26 26 28
8 5 5 11 4 5 5 4 4 4 6 7 7 7 6 9 8 8 11 15 14 13 15 19 20 21 25 26 25 26 29 26 27
11 6 5 8 4 5 5 6 6 4 5 8 7 8 8 7 5 8 10 10 12 17 14 17 13 21 24 27 28 28 28 29 27
10 4 6 5 5 6 6 4 6 4 5 3 7 5 5 6 10 13 10 10 10 14 14 11 15 16 23 24 28 33 35 34 31
9 6 5 6 4 6 6 5 3 3 5 3 5 4 5 5 10 7 8 7 7 12 8 17 20 15 17 21 32 32 31 34 31
10 9 5 6 5 4 5 5 6 4 4 7 2 4 3 12 3 9 5 13 10 6 11 13 14 20 16 20 24 29 26 26 26
10 8 7 5 4 5 4 5 4 4 5 4 3 4 5 7 9 2 13 6 11 11 7 11 8 19 20 21 24 25 29 29 30
9 7 6 5 4 5 6 6 6 3 3 3 3 5 4 6 8 14 8 9 7 6 10 8 11 15 16 21 22 31 33 35 34
Wind_Direction
205 141 132 121 107 76 19 327 313 308 307 304 308 301 304 324 292 307 310 263 262 271 233 268 263 273 273 272 269 268 270 263 266
177 155 155 154 172 206 310 302 299 289 280 278 279 280 280 288 281 281 288 284 244 263 263 259 263 254 268 261 267 270 264 267 258
132 176 183 204 175 234 274 300 300 297 293 283 279 280 269 280 283 269 260 271 263 254 258 263 262 265 257 257 255 259 263 262 262
93 155 183 204 205 268 272 291 295 292 289 288 289 277 261 260 270 278 273 258 262 258 258 259 260 259 256 256 260 250 253 256 254
184 184 199 212 252 281 288 289 290 287 286 287 282 265 256 255 257 258 256 260 263 260 260 259 260 260 261 259 255 263 250 249 252
218 194 172 234 276 282 279 278 279 275 276 269 263 260 249 252 253 248 243 249 266 269 268 267 268 268 266 264 264 256 257 254 249
133 174 238 254 265 266 269 267 262 263 256 263 270 230 230 244 247 250 265 260 264 266 268 270 270 268 267 265 264 264 260 256 255
200 228 220 231 250 241 256 250 249 246 243 250 265 225 222 238 259 258 258 256 261 262 262 262 266 268 268 267 264 262 261 261 256
228 237 270 249 243 232 280 279 287 271 279 267 260 259 257 255 254 255 257 252 254 260 263 263 265 270 275 270 267 264 261 259 259
29 350 325 306 348 344 338 340 331 332 318 321 328 313 307 303 298 302 300 288 257 261 267 268 270 272 280 279 274 263 257 258 257
11 313 1 28 7 354 332 312 312 315 323 338 331 324 336 328 327 320 321 313 301 271 277 282 278 278 280 285 284 283 272 261 254
21 44 31 0 2 9 11 4 353 355 345 331 312 306 303 296 284 289 283 280 284 273 267 279 291 284 278 279 280 282 284 279 270
57 52 26 16 26 26 13 6 358 352 342 316 322 349 333 314 323 321 319 354 358 348 333 319 306 294 286 284 285 286 285 286 284
56 47 26 17 28 28 12 355 12 348 337 340 340 318 311 319 317 345 350 340 333 332 344 332 335 347 341 333 317 307 297 295 293
38 35 37 19 19 21 15 12 1 346 346 331 331 314 311 307 5 349 335 323 341 334 347 334 339 341 331 327 324 322 328 320 305
43 26 29 22 19 31 16 3 353 338 332 341 327 296 336 330 349 340 323 333 330 341 334 345 333 326 327 325 321 316 311 308 302
46 34 24 25 20 26 11 21 344 326 342 349 314 334 317 8 314 299 309 312 328 327 335 330 323 320 325 319 313 312 316 318 312
41 38 27 21 24 23 1 17 2 337 334 2 345 341 308 318 278 304 316 333 315 328 320 307 325 316 323 320 305 297 308 322 322
36 38 31 32 27 24 356 1 355 1 329 336 4 306 295 314 315 297 317 310 316 306 308 309 315 322 315 308 314 322 334 325 319
48 32 33 37 30 10 359 349 349 329 322 314 320 310 302 303 303 307 309 299 300 297 298 320 314 316 312 313 310 327 323 317 315